{"data":{"norad_id":56536,"intl_designator":"2023-065AK","name":"STARLINK-6312","alt_names":[],"object_type":"PAYLOAD","status":"ACTIVE","operator":null,"country":"US","launch_date":"2023-05-14","launch_site_code":"AFETR","launch_vehicle":null,"mission":null,"orbit_class":"UNKNOWN","rcs_meters":null,"size_class":null,"mass_kg":null,"dimensions":null,"purposes":["comms"],"wikipedia_slug":null,"has_3d_model":false,"image_url":null,"decayed_at":null,"tle_current":{"epoch":"2026-05-25T01:23:08.484576Z","epoch_age_seconds":80226,"freshness":"FRESH","line1":"1 56536U 23065AK  26145.05773709  .00000302  00000+0  20485-4 0  9994","line2":"2 56536  43.0018 155.5387 0001124 274.5681  85.5042 15.27574573168115","mean_motion":15.27574573,"eccentricity":0.0001124,"inclination_deg":43.0018,"raan_deg":155.5387,"arg_perigee_deg":274.5681,"mean_anomaly_deg":85.5042,"bstar":2.0485e-5,"rev_number":16811,"period_min":94.267083614254,"perigee_km":482.29414733437,"apogee_km":483.83654562186,"semimajor_km":6861.2023464781,"source":"CELESTRAK","updated_at":"2026-05-25T13:38:18.113339Z"}}}